ASTRA 2B

Last updated on Thu Jun 10 2021 03:57:02 GMT+0000 (Coordinated Universal Time)

1 26494U 00054A 21160.73390046 -.00000190 00000-0 00000+0 0 9996 2 26494 5.2829 71.3204 0008372 64.0567 21.0110 0.98749756 75853
UTC large
Height (km)
Speed (km/s)
/
Latitude / Longitude
Inclination (degrees)
Orbital Period (minutes)
Azimuth
Elevation
Range (km)
Doppler Factor

Next 0 passes for location: London (51.5072 / 0.1276)

Sorry there are no passes over London.
ASTRA 2B